[[{"header":{"parameterUnit":"m.s-1","parameterCategory":1,"la1":30.2991,"la2":30.254,"lo1":-89.0895,"lo2":-89.0444,"dy":0.0017,"dx":0.0017,"nx":28,"ny":28,"refTime":"2024-02-11T09:00:00:Z","depth":0,"parameterNumber":2,"parameterNumberName":"U-component_of_WINDS"},"data":[0,0,0,0,0,0,0,0,0,0,0,0,0,0,0,0,0,0,0,0,0,0,0,0,0,0,0,0,0,0,0,0,0,0,0,0,0,0,0,0,0,0,0,0,0,0,0,0,0,0,0,0,0,0,0,0,0,0,8.0137,8.0139,0,8.0347,8.0349,8.0352,8.0282,8.0277,8.0273,8.0268,8.0487,8.0496,8.0506,0,0,0,0,0,0,0,0,0,0,0,0,0,7.9678,7.9687,8.0136,8.0139,8.0142,8.0347,8.035,8.0352,8.0283,8.0277,8.0271,8.0266,8.0483,8.0495,8.0507,0,0,0,0,0,0,0,0,0,0,0,0,0,7.9882,7.969,8.0136,8.0131,8.0133,8.0346,8.035,8.0353,8.0284,8.0277,8.027,8.0264,8.0479,8.0494,8.0509,8.074,0,0,8.0555,8.0562,0,0,0,0,0,0,0,0,7.987,7.9899,8.013,8.0132,8.0134,8.0281,8.0268,8.0483,8.0285,8.0227,8.0268,8.026,8.0424,8.0443,8.0498,8.075,8.0759,8.0556,8.0566,8.0572,8.0576,0,0,0,0,0,0,0,7.9856,7.9889,8.022,8.0133,8.0136,8.012,8.0142,8.0308,8.0361,8.0231,8.0227,8.0252,8.0424,8.0483,8.0502,8.0762,8.0556,8.0569,8.0579,8.0585,8.1217,8.1224,0,0,0,0,0,0,7.984,7.9878,8.0213,8.0226,7.9983,8.0134,8.0158,8.0241,8.0359,8.0371,8.0258,8.0248,8.0461,8.0485,8.051,8.0789,8.0572,8.0586,8.0595,8.1209,8.1219,8.1227,0,0,0,0,0,0,7.9831,7.9871,8.0205,8.0051,8.0092,8.0149,8.0243,8.0249,8.0308,8.0379,8.0389,8.0309,8.0456,8.0489,8.0683,8.0796,8.0593,8.0607,8.12,8.1212,8.1223,8.1349,0,0,0,0,0,0,7.9818,7.9868,7.9955,8.0053,8.0101,8.0374,8.025,8.0258,8.0334,8.0323,8.043,8.0441,8.0454,8.0661,8.0698,8.0813,8.0619,8.119,8.1205,8.1219,8.1335,8.1363,8.1387,0,0,0,0,0,7.9802,7.9982,7.996,8.0001,8.0211,8.038,8.0408,8.0418,8.0343,8.0432,8.0479,8.0437,8.0777,8.0682,8.0723,8.0844,8.1183,8.1201,8.1218,8.1323,8.1358,8.1387,0,0,0,0,0,0,7.9896,7.9995,7.9971,8.0189,8.0277,8.0368,8.048,8.0454,8.0565,8.0551,8.056,8.0585,8.0785,8.0834,8.0725,8.1074,8.0969,8.0996,8.1035,8.1069,8.1094,8.1079,8.0631,0,0,0,0,0,7.9942,8.0071,8.015,8.0335,8.038,8.0423,8.0497,8.0498,8.059,8.0627,8.0687,8.0779,8.0906,8.099,8.1111,8.1342,8.1365,8.1445,8.1471,8.1493,8.1516,8.1643,8.168,8.1284,8.1284,8.1283,0,0,8.0039,8.0109,8.019,8.0356,8.0424,8.0558,8.0455,8.0601,8.0701,8.0649,8.0837,8.0885,8.0988,8.1202,8.1299,8.1248,8.163,8.1515,8.1531,8.1543,8.1665,8.1702,8.1735,8.1296,8.1294,8.1292,0,0,8.0284,8.0349,8.0511,8.0581,8.0686,8.0713,8.0752,8.0849,8.0878,8.1067,8.1031,8.1151,8.137,8.1445,8.1512,8.1788,8.1755,8.1827,8.1965,8.2089,8.212,8.2148,8.2247,8.2283,8.185,8.185,8.185,0,8.0391,8.0591,8.0597,8.0747,8.0822,8.0781,8.0946,8.1014,8.1153,8.1207,8.1148,8.1423,8.1489,8.1721,8.1789,8.1844,8.189,8.1815,8.2115,8.2143,8.2169,8.2264,8.2301,8.1858,8.1857,8.1856,8.1856,0,8.0718,8.0858,8.0976,8.1111,8.1199,8.1356,8.1387,8.1476,8.1469,8.1504,8.1697,8.1776,8.1913,8.1968,8.1963,8.22,8.2166,8.2111,8.2006,8.2214,8.2304,8.234,8.187,8.1867,8.1865,8.1863,0,0,8.1028,8.1166,8.1209,8.127,8.1383,8.1492,8.1647,8.1781,8.1858,8.1955,8.2087,8.2274,8.2225,8.2301,8.2304,8.2413,8.2628,8.2345,8.2348,8.2396,8.2896,8.2937,8.2979,8.2607,8.2614,8.2619,8.2888,0,8.1283,8.1555,8.1566,8.1815,8.1945,8.1908,8.2044,8.2129,8.2166,8.2282,8.2323,8.2456,8.238,8.2426,8.2532,8.2579,8.2729,8.256,8.2731,8.2737,8.2706,8.3025,8.3069,8.3318,8.2923,8.2929,8.2933,0,8.1617,8.1725,8.1986,8.2082,8.2137,8.2258,8.2383,8.2494,8.259,8.2609,8.2695,8.2683,8.2844,8.2733,8.2956,8.2841,8.2912,8.2946,8.2956,8.2972,8.2848,8.3052,8.3398,8.3436,8.2988,8.2983,8.298,0,8.1818,8.2029,8.2213,8.2267,8.2383,8.2469,8.2522,8.2611,8.2691,8.28,8.2852,8.2979,8.3049,8.3148,8.3171,8.3088,8.3394,8.3285,8.3416,8.3416,8.3482,8.3478,8.3845,8.3527,8.3526,8.3525,8.3525,0,8.2103,8.2264,8.2305,8.2419,8.2599,8.2611,8.279,8.2837,8.2917,8.304,8.3016,8.3132,8.3155,8.3277,8.3296,8.3478,8.351,8.3531,8.3534,8.3533,8.3531,8.358,8.3563,8.3535,8.3533,8.3531,8.353,0,8.2358,8.2392,8.259,8.2684,8.2711,8.284,8.2921,8.3031,8.3065,8.3221,8.3258,8.3312,8.3454,8.3487,8.3656,8.3669,8.3885,8.3871,8.3852,8.3851,8.3981,8.3969,8.4394,8.445,8.4094,8.4097,8.41,0,8.2537,8.2661,8.2768,8.2848,8.2905,8.3034,8.3116,8.3133,8.3219,8.3339,8.3434,8.3573,8.3685,8.3914,8.3969,8.4099,8.4088,8.4229,8.4108,8.4104,8.4092,8.4084,8.4097,8.4252,8.4255,8.4259,8.4261,0,8.2853,8.2864,8.2981,8.3107,8.3204,8.3304,8.3398,8.3466,8.3496,8.3594,8.3739,8.3826,8.3998,8.4137,8.4267,8.4323,8.4299,8.4299,8.4336,8.4337,8.4321,8.4332,8.3916,8.4289,8.4286,8.4284,8.4283,8.4281,8.3077,8.3185,8.3278,8.341,8.3483,8.3573,8.368,8.3728,8.3848,8.3989,8.3993,8.4151,8.4245,8.4417,8.4481,8.4605,8.4562,8.4616,8.463,8.4643,8.4655,8.4301,8.4629,8.4628,8.4628,8.4627,8.4627,0,8.3392,8.3449,8.3571,8.3704,8.3809,8.3776,8.3879,8.397,8.4109,8.4198,8.4309,8.4476,8.4611,8.4677,8.4811,8.4898,8.4891,8.4933,8.4927,8.4941,8.4686,8.464,8.4937,8.4937,8.4937,8.4937,8.4937,8.4937,8.3568,8.375,8.3772,8.3991,8.4048,8.4202,8.4264,8.4347,8.4419,8.4606,8.4717,8.4759,8.4841,8.498,8.5103,8.5119,8.517,8.5219,8.5229,8.499,8.4958,8.4928,8.4886,8.5229,8.523,8.5474,8.5476,8.5478]},{"header":{"parameterUnit":"m.s-1","parameterCategory":1,"la1":30.2991,"la2":30.254,"lo1":-89.0895,"lo2":-89.0444,"dy":0.0017,"dx":0.0017,"nx":28,"ny":28,"refTime":"2024-02-11T09:00:00:Z","depth":0,"parameterNumber":3,"parameterNumberName":"V-component_of_WINDS"},"data":[0,0,0,0,0,0,0,0,0,0,0,0,0,0,0,0,0,0,0,0,0,0,0,0,0,0,0,0,0,0,0,0,0,0,0,0,0,0,0,0,0,0,0,0,0,0,0,0,0,0,0,0,0,0,0,0,0,0,-3.8604,-3.8606,0,-3.8712,-3.8713,-3.8715,-3.8702,-3.87,-3.8698,-3.8696,-3.8807,-3.8812,-3.8816,0,0,0,0,0,0,0,0,0,0,0,0,0,-3.8388,-3.8392,-3.8604,-3.8606,-3.8607,-3.8712,-3.8713,-3.8715,-3.8702,-3.87,-3.8698,-3.8696,-3.8806,-3.8811,-3.8817,0,0,0,0,0,0,0,0,0,0,0,0,0,-3.8488,-3.8393,-3.8604,-3.8613,-3.8615,-3.8712,-3.8714,-3.8715,-3.8702,-3.87,-3.8697,-3.8695,-3.8804,-3.8811,-3.8817,-3.8912,0,0,-3.8838,-3.8841,0,0,0,0,0,0,0,0,-3.8482,-3.8496,-3.861,-3.8613,-3.8615,-3.8691,-3.8678,-3.8781,-3.8703,-3.8669,-3.8696,-3.8693,-3.8771,-3.878,-3.8806,-3.8917,-3.8922,-3.8839,-3.8843,-3.8846,-3.8848,0,0,0,0,0,0,0,-3.8475,-3.8491,-3.8647,-3.8612,-3.8615,-3.8612,-3.8623,-3.8697,-3.8733,-3.8672,-3.8671,-3.8684,-3.8771,-3.8799,-3.8808,-3.8924,-3.8839,-3.8845,-3.8849,-3.8852,-3.9119,-3.9122,0,0,0,0,0,0,-3.8466,-3.8485,-3.8644,-3.865,-3.8541,-3.8618,-3.8631,-3.8669,-3.8732,-3.874,-3.8686,-3.8683,-3.8789,-3.88,-3.8812,-3.8928,-3.8846,-3.8852,-3.8856,-3.9116,-3.912,-3.9123,0,0,0,0,0,0,-3.8461,-3.848,-3.8639,-3.8568,-3.8588,-3.8625,-3.8668,-3.8673,-3.8701,-3.8743,-3.875,-3.8708,-3.8787,-3.8803,-3.8888,-3.8932,-3.8855,-3.8862,-3.9112,-3.9117,-3.9121,-3.9159,0,0,0,0,0,0,-3.8455,-3.8478,-3.8514,-3.8568,-3.8591,-3.8712,-3.8671,-3.8677,-3.8712,-3.8709,-3.8766,-3.8772,-3.8786,-3.8877,-3.8894,-3.894,-3.8867,-3.9109,-3.9114,-3.912,-3.9154,-3.9165,-3.9174,0,0,0,0,0,-3.8447,-3.8521,-3.8516,-3.8536,-3.8637,-3.8715,-3.8728,-3.8743,-3.8716,-3.8753,-3.878,-3.8771,-3.8924,-3.8886,-3.8905,-3.8953,-3.9106,-3.9113,-3.9119,-3.915,-3.9163,-3.9173,0,0,0,0,0,0,-3.8471,-3.8528,-3.8524,-3.8617,-3.8661,-3.8713,-3.8759,-3.8755,-3.8808,-3.8803,-3.8819,-3.8832,-3.8918,-3.8944,-3.8901,-3.9049,-3.9011,-3.9022,-3.9028,-3.9041,-3.905,-3.9042,-3.8873,0,0,0,0,0,-3.8487,-3.8545,-3.8592,-3.867,-3.8692,-3.8722,-3.8756,-3.8764,-3.881,-3.8829,-3.8863,-3.8908,-3.8967,-3.9005,-3.9061,-3.9158,-3.9171,-3.9201,-3.921,-3.9218,-3.9227,-3.9281,-3.9295,-3.9145,-3.9145,-3.9145,0,0,-3.8521,-3.8559,-3.8595,-3.8675,-3.871,-3.8771,-3.8738,-3.8803,-3.8848,-3.8839,-3.8921,-3.8948,-3.9,-3.9091,-3.9133,-3.9116,-3.9271,-3.9226,-3.9232,-3.9237,-3.9289,-3.9304,-3.9316,-3.9149,-3.9149,-3.9148,0,0,-3.8613,-3.8648,-3.8717,-3.8753,-3.8806,-3.8826,-3.8843,-3.8895,-3.8912,-3.8995,-3.899,-3.9044,-3.9144,-3.9182,-3.9214,-3.9322,-3.9315,-3.934,-3.939,-3.9442,-3.9454,-3.9465,-3.9504,-3.9517,-3.9349,-3.9349,-3.9349,0,-3.8648,-3.8738,-3.8752,-3.8818,-3.8854,-3.8849,-3.892,-3.8954,-3.9024,-3.9049,-3.9028,-3.9155,-3.9189,-3.929,-3.9316,-3.9342,-3.9362,-3.9334,-3.9451,-3.9462,-3.9472,-3.9509,-3.9524,-3.9352,-3.9352,-3.9351,-3.9351,0,-3.8779,-3.8842,-3.8891,-3.8959,-3.9,-3.9068,-3.9093,-3.9133,-3.9137,-3.9159,-3.9244,-3.9286,-3.9351,-3.9375,-3.938,-3.9477,-3.9464,-3.9447,-3.941,-3.9489,-3.9524,-3.9539,-3.9356,-3.9355,-3.9354,-3.9353,0,0,-3.8889,-3.8964,-3.8982,-3.9013,-3.9072,-3.9121,-3.9189,-3.9252,-3.9287,-3.9335,-3.9393,-3.9479,-3.9464,-3.95,-3.9509,-3.9555,-3.9639,-3.9533,-3.9534,-3.9551,-3.9749,-3.9762,-3.9778,-3.9635,-3.9637,-3.964,-3.9745,0,-3.8987,-3.9107,-3.9122,-3.9229,-3.9287,-3.9284,-3.9343,-3.9386,-3.9409,-3.9462,-3.9487,-3.9548,-3.9523,-3.9545,-3.9591,-3.9619,-3.9679,-3.9612,-3.9689,-3.9692,-3.9676,-3.9796,-3.981,-3.9907,-3.9759,-3.9761,-3.9763,0,-3.9118,-3.917,-3.9283,-3.9335,-3.936,-3.9413,-3.9473,-3.9523,-3.9573,-3.9586,-3.9627,-3.9631,-3.9702,-3.9662,-3.976,-3.9714,-3.9747,-3.9765,-3.9769,-3.9777,-3.9732,-3.9808,-3.9938,-3.9953,-3.9785,-3.9783,-3.9781,0,-3.9187,-3.9286,-3.9366,-3.9392,-3.9455,-3.9492,-3.952,-3.9567,-3.9605,-3.9657,-3.9682,-3.9742,-3.9775,-3.9822,-3.9841,-3.981,-3.9939,-3.99,-3.9952,-3.9952,-3.9979,-3.9977,-4.0117,-4.0,-4.0,-3.9999,-3.9999,0,-3.9296,-3.9365,-3.9398,-3.9447,-3.9525,-3.9542,-3.9618,-3.9645,-3.9686,-3.9741,-3.9742,-3.9794,-3.9816,-3.9872,-3.9888,-3.9967,-3.9982,-3.9995,-3.9998,-3.9995,-3.9993,-4.0017,-4.0011,-4.0003,-4.0003,-4.0002,-4.0001,0,-3.9386,-3.9411,-3.9499,-3.9551,-3.9566,-3.9621,-3.9666,-3.9714,-3.9736,-3.9805,-3.9823,-3.9858,-3.9923,-3.9947,-4.0027,-4.0038,-4.0129,-4.0127,-4.0113,-4.0114,-4.0165,-4.016,-4.0324,-4.0347,-4.0215,-4.0216,-4.0217,0,-3.9454,-3.9507,-3.9565,-3.9602,-3.9631,-3.969,-3.9729,-3.9748,-3.9788,-3.9849,-3.989,-3.9954,-4.0007,-4.0112,-4.0145,-4.0206,-4.0205,-4.0259,-4.0215,-4.021,-4.0207,-4.0204,-4.0209,-4.0267,-4.0269,-4.027,-4.0271,0,-3.9572,-3.9582,-3.9637,-3.9697,-3.9743,-3.9791,-3.9838,-3.9868,-3.9894,-3.9939,-4.0006,-4.0047,-4.0128,-4.0193,-4.0256,-4.0285,-4.0283,-4.0284,-4.03,-4.0297,-4.0287,-4.0293,-4.0136,-4.028,-4.0279,-4.0279,-4.0278,-4.0278,-3.9654,-3.9701,-3.9749,-3.9811,-3.9848,-3.9892,-3.994,-3.9968,-4.0024,-4.0092,-4.01,-4.0172,-4.0221,-4.0305,-4.0337,-4.0394,-4.0379,-4.0401,-4.0407,-4.0412,-4.0416,-4.0277,-4.0405,-4.0405,-4.0405,-4.0404,-4.0404,0,-3.9772,-3.9803,-3.986,-3.9925,-3.9974,-3.9967,-4.0019,-4.006,-4.0123,-4.0169,-4.0221,-4.0298,-4.0361,-4.0399,-4.0463,-4.0501,-4.0502,-4.0517,-4.0515,-4.0522,-4.0425,-4.0406,-4.0516,-4.0516,-4.0516,-4.0516,-4.0516,-4.0516,-3.9839,-3.9919,-3.9935,-4.0033,-4.0064,-4.0134,-4.0164,-4.0205,-4.0242,-4.0328,-4.038,-4.0404,-4.0447,-4.0514,-4.0572,-4.0582,-4.0605,-4.0622,-4.0631,-4.054,-4.0528,-4.0517,-4.0499,-4.0627,-4.0627,-4.0722,-4.0723,-4.0724]}]]